Location: Nasgenstadt
(48.2786°N, 9.7553°E)
Time: 17:02:49
(UTC+01:00)

ISS - Pass Details

Date: 21 March 2017
Orbit: 399 x 409 km, 51.6° (Epoch: 25 March)

Event Time Altitude Azimuth Distance (km) Brightness Sun altitude
Exits shadow 04:36:50 58° 220° (SW) 482 -3.8 -17.9°
Maximum altitude 04:36:57 59° 208° (SSW) 480 -3.8 -17.9°
Drops below altitude 10° 04:40:12 10° 129° (SE) 1,470 -0.6 -17.4°
Sets 04:42:18 0° 125° (SE) 2,329 0.5 -17.0°
